Regional Weather Roundup
Issued by NWS Wakefield, VA

Home | Current Version | Previous Version | Graphics & Text | Print | Product List | Glossary On
Versions: 1 2 3 4 5 6 7 8 9 10 11 12 13 14 15 16 17 18 19 20 21 22 23 24 25 26 27 28
000
ASUS41 KAKQ 132215
RWRAKQ

REGIONAL WEATHER ROUNDUP
NATIONAL WEATHER SERVICE WAKEFIELD VA
500 PM EST WED DEC 13 2017

Note: "fair" indicates few or no clouds below 12,000 feet with no
significant weather and/or obstructions to visibility. * = Denotes
station may not report precipitation (e.g., rain,snow,etc.),
thunder or fog.

VAZ042-051-052>054-056-132300-
NORTHERN VIRGINIA

CITY           SKY/WX    TMP DP  RH WIND       PRES   REMARKS
WASH NATIONAL  MOCLDY    34   7  32 S10       29.77F
DULLES         CLOUDY    32   8  36 S9        29.74F
FORT BELVOIR   MOCLDY    33   6  31 S3        29.76F
QUANTICO       MOCLDY    35   9  33 SW7       29.79F
FREDERICKSBRG* MOCLDY    34  11  38 S7        29.78F
STAFFORD*      CLOUDY    32   6  32 SW5       29.81F
WARRENTON      PTCLDY    33   2  27 S3        29.74F
CULPEPER*      CLEAR     33   5  29 S3        29.75F
MANASSAS*      CLOUDY    32  11  41 S5        29.76F
LEESBURG*      CLOUDY    34  12  40 CALM      29.74F
WINCHESTER     CLOUDY    32  10  40 CALM      29.69F
FRONT ROYAL*   CLOUDY    32   9  37 CALM      29.69F
LURAY*         CLOUDY    34  10  37 S8        29.69S
$$

VAZ048-049-060>072-079>083-132300-
CENTRAL AND SOUTH CENTRAL VIRGINIA

CITY           SKY/WX    TMP DP  RH WIND       PRES   REMARKS
RICHMOND       CLOUDY    37  11  34 S7        29.81S
CHESTERFIELD*  NOT AVBL
PETERSBURG*    CLOUDY    34   7  32 CALM      29.82F
HANOVER        CLOUDY    34   8  33 S8        29.81F
TAPPAHANNOCK*  CLOUDY    34  11  38 SW6       29.81F
QUINTON*       FAIR      33   9  36 S6        29.82R
CHARLOTTSVILLE CLOUDY    36   7  29 S10       29.73F
GORDONSVILLE*  CLOUDY    34   8  33 SW8       29.74S
ORANGE*        CLOUDY    34   9  35 CALM      29.75F
LOUISA*        MOCLDY    34   6  31 SW6       29.80F
BUMPASS*       FAIR      33   4  30 SW7       29.78S
FARMVILLE*     PTCLDY    36  11  36 S6        29.77S
CREWE*         FAIR      35  10  35 SW3       29.79F
FORT PICKETT*  NOT AVBL
CHASE CITY*    FAIR      36  12  37 CALM      29.79F
CLARKSVILLE*   FAIR      37  12  35 S5        29.80F
SOUTH HILL*    PTCLDY    35  12  37 S6        29.87F
LAWRENCEVILLE* FAIR      34   9  35 SW5       29.82S
EMPORIA*       PTCLDY    34  10  37 SW3       29.85S
$$

VAZ088>098-132300-
SOUTHEAST VIRGINIA

CITY           SKY/WX    TMP DP  RH WIND       PRES   REMARKS
NORFOLK        CLOUDY    37   9  31 W7        29.82F
VIRGINIA BEACH MOCLDY    35   8  32 SW13      29.83F
NORFOLK NAVAL  MOCLDY    37   9  31 SW12      29.85F
WEST POINT*    MOCLDY   N/A N/A N/A SW8       29.84S
SALUDA*        FAIR      33   9  37 S5        29.82R
NEWPORT NEWS   CLOUDY    35  10  35 W9        29.83F
LANGLEY AFB    NOT AVBL
FORT EUSTIS    MOCLDY    35   9  33 SW7       29.81F
WILLIAMSBURG*  CLOUDY    36  12  38 W5        29.83F
HR EXEC AP*    FAIR      35  10  35 SW7       29.85F
FRANKLIN*      CLOUDY    34   9  35 CALM      29.85F
US460-WAKEFLD  CLOUDY    35  10  35 SW6       29.83F
$$

VAZ020-022-025-037-045-132300-
WEST CENTRAL AND SOUTHWEST VIRGINIA

CITY           SKY/WX    TMP DP  RH WIND       PRES   REMARKS
STAUNTON*      CLOUDY    33  10  39 S9G17     29.70F
WAYNESBORO*    CLOUDY    32   9  38 SW9G16    29.69F
HOT SPRINGS VA CLOUDY    24  10  54 S8        29.56F
LYNCHBURG      CLEAR     35  11  36 S12       29.72F
DANVILLE       CLEAR     38  14  37 SW5       29.78F
SOUTH BOSTON*  FAIR      38   9  31 SW5       29.80F
MARTINSVILLE   CLEAR     37  11  33 CALM      29.76F
ROANOKE        MOCLDY    39  14  36 S6        29.72F
BLACKSBURG     CLOUDY    36  16  45 CALM      29.69F
DUBLIN*        CLOUDY    37  19  48 SW6       29.68F
MARION*        CLOUDY    34   9  35 W6        29.69F
HILLSVILLE*    CLOUDY    34  10  37 S10G16    29.66R
RICHLANDS*     CLOUDY    35  11  36 S9G18     29.63F
WISE*          CLOUDY    34  12  40 S14       29.61F WCI  24
ABINGDON*      CLOUDY    38  11  32 W6        29.69S
$$

MDZ021>025-VAZ099-100-132300-
SOUTHERN MARYLAND AND THE DELMARVA PENINSULA

CITY           SKY/WX    TMP DP  RH WIND       PRES   REMARKS
PATUXENT RIVER MOCLDY    32   9  38 W8        29.80R
BAY BRIDGE APT CLEAR     32   9  37 MISG      29.78R
LEONARDTOWN    PTCLDY    32   9  37 SW8       29.81R
DOVER          CLEAR     29  10  44 W8        29.76R
GEORGETOWN     CLOUDY    31   8  38 W6        29.77S
EASTON         PTCLDY    32   7  34 W7        29.81R
CAMBRIDGE      CLEAR     32   7  34 SW6       29.79R
SALISBURY      CLOUDY    29  11  47 W8        29.79R
OCEAN CITY     PTCLDY    30  12  47 W7        29.78F
WALLOPS ISLAND MOCLDY    32  12  43 SW8       29.81S
ACCOMACK*      PTCLDY    34  13  41 W8        29.81S
$$

NCZ012>017-030>032-132300-
NORTH CENTRAL AND EASTERN NORTH CAROLINA

CITY           SKY/WX    TMP DP  RH WIND       PRES   REMARKS
ROANOKE RAPIDS FAIR      37  12  35 SW6       29.84F
RALEIGH        PTCLDY    38  14  37 SW9       29.84F
ELIZABETH CITY MOCLDY    36  13  38 W7        29.86F
AHOSKIE*       CLOUDY    37  11  34 CALM      29.85F
EDENTON*       MOCLDY    40  12  32 W10       29.87F
CURRITUCK*     MOCLDY    36  10  34 W7        29.87F
KILL DEVIL HLS MOCLDY    36  13  38 W6        29.86S
MANTEO         MOCLDY    37  13  37 W6        29.88S
CAPE HATTERAS  CLEAR     39  19  44 W9G17     29.90R
TARBORO*       NOT AVBL
GOLDSBORO      CLEAR     41  12  30 SW5       29.85F
WASHINGTON     CLEAR     38  11  32 SW5       29.88F
GREENVILLE     CLEAR     37  10  32 W3        29.90F
NEW BERN       CLEAR     37  14  38 SW5       29.91F
WILMINGTON     CLEAR     43  18  36 SW6       29.91F
$$

VAZ048-132300-
ELSEWHERE

CITY           SKY/WX    TMP DP  RH WIND       PRES   REMARKS
HARRISBURG PA  PTCLDY    27   7  42 W7        29.71S
BALTIMORE      MOCLDY    30   8  39 W5        29.75S
ANNAPOLIS      CLEAR     32   8  36 CALM      29.76S
ANDREWS AFB    CLEAR     31   7  36 SW8       29.74F
PHILADELPHIA   PTCLDY    29   3  33 W17       29.73R WCI  17
HENDERSON NC   CLEAR     36   9  32 SW7       29.82S
GREENSBORO     PTCLDY    41  13  31 SW14      29.77F
ROCKY MOUNT    CLEAR     37  15  40 S3        29.85F
$$

VAZ100-132300-
MARINE

STATION/POSITION TIME  TEMP    WIND        PRES    WAVE   SWELL
                       AIR SEA DIR/SP/G            HT/PER HT/PER
                 (UTC) (F)     (DEG/KT/KT) (MB)    (FT/S) (FT/S)
BRANDYWINE LGT   2148          290/ 25/ 29   N/A
CAPE MAY NJ      2148   31 37  290/ 21/ 25 1007.2R
LEWES DE         2148   31 42  280/  7/  9 1007.7F
15NM E FENWICK I 2150   34 54  250/ 19/ 25 1008.2F   5/ 5
OCEAN-CITY-INLET 2148   32 45  290/  9/ 11 1008.8F
WACHAPREAGUE VA  2148   33 40  240/  5/  7 1009.4R
THOMAS POINT MD  2100   33 45  260/ 13/ 17   N/A
GOOSES REEF MD   2150   35     240/ 14/ 16 1009.3R
COVE POINT MD    2148   33     270/  7/ 11 1009.5R
SOLOMONS ISLAND  2148   34 47  240/  9/ 13 1008.6R
BISHOPS HEAD MD  2148   34 31  240/ 16/ 19 1009.4R
PINEY POINT MD   2148          280/ 12/ 13   N/A
POTOMAC MD       2150   36     260/ 16/ 21 1008.7R
CAMBRIDGE MD     2148   31 42              1009.3R
LEWISETTA VA     2148   34 41  270/  7/ 10 1009.1S
RAPPAHANNOCK LGT 2148          250/ 20/ 25 1009.8F
STINGRAY PT      2150   35     270/ 12/ 17 1010.1R
YORK RVR RNG VA  2148   36     270/ 14/ 18 1009.8F
YORKTOWN VA      2148   36 48  250/  9/ 12 1009.7R
JAMESTOWN VA     2150          260/  6/ 10   N/A
DOMINION TERM VA 2148   37     270/ 10/ 14 1010.0F
KIPTOPEKE VA     2148      42  260/ 15/ 22   N/A
CAPE HENRY VA    2148   36     240/  7/ 12   N/A
WILLOUBY STN VA  2142          260/ 16/ 18 1009.6F
S CRANEY ISL VA  2148   36     250/  8/ 12 1009.9F
CAPE HENRY BUOY  2130      53                N/A     3/ 4
1ST LANDING BUOY 2150   37     270/ 17/ 23 1010.0F
CAPE CHARLES BUO 2121      52                N/A     3/ 4
64NM E OF VA BCH 2150   39 58  260/ 16/ 21 1010.7R   6/ 6   2/11
DUCK PIER NC     2148   38 54  270/ 10/ 16 1010.8F
44100 DUCK FRF   2145      54                N/A     3/ 6
44056 DUCK FRF   2200      56                N/A     2/ 5
OREGON INLET NC  2142   38 44  260/  7/ 12 1011.6S
HATTERAS NC      2148   40 49  280/ 16/ 19 1012.1R
DIAMOND SHLS NC  2150   44 74  290/ 14/ 19 1012.4R   5/ 8   3/ 8
CAPE LOOKOUT NC  2100          270/  8/ 11 1013.1R
$$




USA.gov is the U.S. government's official web portal to all federal, state and local government web resources and services.